TimeCDT,TemperatureF,Dew PointF,Humidity,Sea Level PressureIn,VisibilityMPH,Wind Direction,Wind SpeedMPH,Gust SpeedMPH,PrecipitationIn,Events,Conditions,WindDirDegrees,DateUTC
12:15 AM,66.7,63.1,88,29.96,10.0,Calm,Calm,-,N/A,,Clear,0,2013-07-21 05:15:00
12:35 AM,66.4,63.1,89,29.96,10.0,ENE,3.5,-,N/A,,Clear,60,2013-07-21 05:35:00
12:55 AM,66.2,63.0,89,29.97,10.0,Calm,Calm,-,N/A,,Clear,0,2013-07-21 05:55:00
1:15 AM,66.2,63.0,89,29.96,10.0,East,4.6,-,N/A,,Clear,90,2013-07-21 06:15:00
1:35 AM,66.6,63.7,90,29.97,10.0,East,4.6,-,N/A,,Clear,80,2013-07-21 06:35:00
1:55 AM,65.8,62.8,90,29.96,10.0,ENE,5.8,-,N/A,,Clear,60,2013-07-21 06:55:00
2:15 AM,66.2,63.1,90,29.95,10.0,ENE,6.9,-,N/A,,Clear,60,2013-07-21 07:15:00
2:35 AM,66.2,63.3,90,29.96,10.0,ENE,5.8,-,N/A,,Clear,70,2013-07-21 07:35:00
2:55 AM,65.8,62.8,90,29.96,10.0,ENE,5.8,-,N/A,,Clear,70,2013-07-21 07:55:00
3:15 AM,65.8,62.8,90,29.96,10.0,ENE,5.8,-,N/A,,Clear,70,2013-07-21 08:15:00
3:35 AM,65.5,62.4,90,29.96,10.0,ENE,4.6,-,N/A,,Clear,60,2013-07-21 08:35:00
3:55 AM,64.8,61.9,90,29.95,10.0,NE,4.6,-,N/A,,Clear,50,2013-07-21 08:55:00
4:15 AM,64.4,61.7,91,29.95,10.0,NE,5.8,-,N/A,,Clear,50,2013-07-21 09:15:00
4:35 AM,63.9,61.0,90,29.96,10.0,NE,4.6,-,N/A,,Clear,40,2013-07-21 09:35:00
4:55 AM,63.7,60.8,90,29.95,10.0,NE,4.6,-,N/A,,Clear,40,2013-07-21 09:55:00
5:15 AM,63.5,60.4,90,29.96,10.0,NNE,4.6,-,N/A,,Clear,30,2013-07-21 10:15:00
5:35 AM,63.7,60.8,90,29.97,10.0,Calm,Calm,-,N/A,,Clear,0,2013-07-21 10:35:00
5:55 AM,63.5,60.4,90,29.97,10.0,East,3.5,-,N/A,,Clear,80,2013-07-21 10:55:00
6:15 AM,64.6,61.5,90,29.97,10.0,East,4.6,-,N/A,,Clear,90,2013-07-21 11:15:00
6:35 AM,65.3,62.1,89,29.97,10.0,East,5.8,-,N/A,,Clear,80,2013-07-21 11:35:00
6:55 AM,66.7,63.5,89,29.97,10.0,ENE,6.9,-,N/A,,Clear,70,2013-07-21 11:55:00
7:15 AM,68.9,65.3,88,29.97,10.0,ENE,8.1,-,N/A,,Clear,70,2013-07-21 12:15:00
7:35 AM,70.2,66.0,87,29.97,10.0,East,8.1,-,N/A,,Clear,90,2013-07-21 12:35:00
7:55 AM,70.9,66.6,86,29.98,10.0,East,8.1,-,N/A,,Clear,100,2013-07-21 12:55:00
8:15 AM,71.4,67.1,86,29.97,10.0,East,6.9,-,N/A,,Clear,90,2013-07-21 13:15:00
8:35 AM,73.0,68.4,85,29.98,10.0,East,8.1,-,N/A,,Clear,100,2013-07-21 13:35:00
8:55 AM,74.5,68.9,83,29.98,10.0,East,6.9,-,N/A,,Clear,100,2013-07-21 13:55:00
9:15 AM,75.9,69.4,80,29.98,10.0,ESE,8.1,-,N/A,,Clear,120,2013-07-21 14:15:00
9:35 AM,77.0,69.4,77,29.98,10.0,ESE,9.2,-,N/A,,Clear,110,2013-07-21 14:35:00
9:55 AM,78.3,69.8,75,29.98,10.0,ESE,10.4,-,N/A,,Clear,120,2013-07-21 14:55:00
10:15 AM,79.2,69.6,72,29.98,10.0,ESE,10.4,-,N/A,,Clear,120,2013-07-21 15:15:00
10:35 AM,80.2,70.3,72,29.98,10.0,SE,9.2,-,N/A,,Clear,140,2013-07-21 15:35:00
10:55 AM,81.0,69.3,67,29.98,10.0,SSE,6.9,-,N/A,,Clear,160,2013-07-21 15:55:00
11:15 AM,82.2,68.9,64,29.97,10.0,SE,9.2,-,N/A,,Clear,140,2013-07-21 16:15:00
11:35 AM,82.2,70.0,66,29.98,10.0,SSE,9.2,-,N/A,,Clear,150,2013-07-21 16:35:00
11:55 AM,83.3,69.6,63,29.98,10.0,South,6.9,-,N/A,,Clear,180,2013-07-21 16:55:00
12:15 PM,83.5,68.7,61,29.97,10.0,SE,5.8,-,N/A,,Clear,130,2013-07-21 17:15:00
1:15 PM,84.4,67.6,57,29.95,10.0,SE,9.2,-,N/A,,Clear,140,2013-07-21 18:15:00
1:35 PM,85.5,67.1,54,29.95,10.0,SSE,12.7,-,N/A,,Clear,150,2013-07-21 18:35:00
1:55 PM,85.6,67.5,54,29.94,10.0,ESE,10.4,-,N/A,,Clear,120,2013-07-21 18:55:00
2:15 PM,84.9,68.7,58,29.93,10.0,SE,5.8,-,N/A,,Scattered Clouds,140,2013-07-21 19:15:00
2:35 PM,86.2,68.2,55,29.93,10.0,SSE,12.7,16.1,N/A,,Scattered Clouds,160,2013-07-21 19:35:00
2:55 PM,85.8,66.7,53,29.92,10.0,SE,10.4,-,N/A,,Clear,130,2013-07-21 19:55:00
3:15 PM,86.7,68.9,55,29.92,10.0,South,10.4,-,N/A,,Scattered Clouds,180,2013-07-21 20:15:00
3:35 PM,88.0,68.9,53,29.91,10.0,SSW,12.7,16.1,N/A,,Scattered Clouds,200,2013-07-21 20:35:00
3:55 PM,83.8,69.4,62,29.90,10.0,South,11.5,-,N/A,,Scattered Clouds,180,2013-07-21 20:55:00
4:15 PM,82.4,68.0,62,29.90,10.0,SSW,10.4,-,N/A,,Scattered Clouds,200,2013-07-21 21:15:00
4:35 PM,83.8,70.5,64,29.88,10.0,SSW,16.1,19.6,N/A,,Clear,210,2013-07-21 21:35:00
4:55 PM,83.5,68.7,61,29.87,10.0,SSW,15.0,-,N/A,,Clear,200,2013-07-21 21:55:00
5:15 PM,82.9,68.7,62,29.88,10.0,SSW,11.5,18.4,N/A,,Clear,200,2013-07-21 22:15:00
5:35 PM,81.3,68.2,64,29.89,10.0,SW,10.4,-,N/A,,Clear,220,2013-07-21 22:35:00
5:55 PM,81.1,68.2,65,29.90,10.0,WSW,8.1,-,N/A,,Clear,240,2013-07-21 22:55:00
6:15 PM,81.0,68.4,65,29.90,10.0,WSW,5.8,-,N/A,,Clear,240,2013-07-21 23:15:00
6:35 PM,80.6,68.2,66,29.90,10.0,SW,6.9,-,N/A,,Clear,230,2013-07-21 23:35:00
6:55 PM,79.7,68.5,69,29.91,10.0,WSW,5.8,-,N/A,,Clear,250,2013-07-21 23:55:00
7:15 PM,79.0,69.4,72,29.91,10.0,West,3.5,-,N/A,,Clear,280,2013-07-22 00:15:00
7:35 PM,78.4,68.9,72,29.92,10.0,NNW,12.7,17.3,N/A,,Clear,340,2013-07-22 00:35:00
7:55 PM,72.0,65.1,79,29.92,10.0,NNE,17.3,26.5,N/A,,Clear,20,2013-07-22 00:55:00
8:15 PM,70.7,64.4,80,29.92,10.0,NE,13.8,-,N/A,,Clear,40,2013-07-22 01:15:00
8:35 PM,69.8,64.0,82,29.93,10.0,NE,13.8,-,N/A,,Clear,50,2013-07-22 01:35:00
8:55 PM,69.3,64.4,84,29.93,10.0,ENE,13.8,-,N/A,,Clear,60,2013-07-22 01:55:00
9:15 PM,69.1,64.4,85,29.92,10.0,ENE,13.8,18.4,N/A,,Clear,60,2013-07-22 02:15:00
9:35 PM,68.9,64.4,86,29.92,10.0,ENE,13.8,-,N/A,,Clear,60,2013-07-22 02:35:00
9:55 PM,68.5,64.2,86,29.93,10.0,ENE,12.7,-,N/A,,Clear,70,2013-07-22 02:55:00
10:15 PM,68.0,64.2,88,29.92,10.0,ENE,10.4,16.1,N/A,,Clear,70,2013-07-22 03:15:00
10:35 PM,67.6,64.4,89,29.92,10.0,East,9.2,-,N/A,,Clear,80,2013-07-22 03:35:00
10:55 PM,67.6,64.4,89,29.92,10.0,East,6.9,-,N/A,,Clear,90,2013-07-22 03:55:00
11:15 PM,67.5,64.2,89,29.91,10.0,East,6.9,-,N/A,,Clear,100,2013-07-22 04:15:00
11:35 PM,66.9,63.7,89,29.90,10.0,East,5.8,-,N/A,,Clear,90,2013-07-22 04:35:00
11:55 PM,67.1,63.7,89,29.91,10.0,East,3.5,-,N/A,,Scattered Clouds,80,2013-07-22 04:55:00